World > North America > United States > Pennsylvania

Barbours, Pennsylvania Regional Weather

Lat: 41.40N, Lon: 76.78W
Wx Zone: PAZ041Web Search

Our weather pages are very print friendly and they make great conversation starters.

Feedback


°F Click to change Barbours hourly weather to Imperial units.Click to change Barbours hourly weather to Metric units. °C
Barbours Weather Map
UTC Time: 5/18/2021, 22:57
Your Time:

Barbours, PA Regional Weather

Expires:202105182300;;331560
ASUS41 KCTP 182210
RWRCTP

REGIONAL WEATHER ROUNDUP
NATIONAL WEATHER SERVICE STATE COLLEGE PA
600 PM EDT TUE MAY 18 2021

Note: "fair" indicates few or no clouds below 12,000 feet with no 
significant weather and/or obstructions to visibility.

* = STATION THAT DOES NOT REPORT PRECIPITATION /E.G. RAIN...SNOW...ETC/
    THUNDER OR FOG.


PAZ004>006-010>012-017>019-024>028-033>037-041-042-045-046-049>053-182300-
CENTRAL PENNSYLVANIA
  
CITY           SKY/WX    TMP DP  RH WIND       PRES   REMARKS
BRADFORD       SUNNY     77  35  21 VRB6      30.30F                  
ST MARYS       CLEAR     75  43  31 CALM      30.33S                  
DUBOIS         SUNNY     76  39  26 SW5       30.29F                  
CLEARFIELD     SUNNY     77  39  25 SW9       30.28F                  
JOHNSTOWN      SUNNY     74  39  28 CALM      30.31F                  
SOMERSET       FAIR      72  37  28 CALM      30.32S                  
ALTOONA        SUNNY     77  42  28 SE6       30.30S                  
STATE COLLEGE  MOSUNNY   77  43  29 SW7       30.27F                  
REEDSVILLE     FAIR      79 -29   1 SW6       30.26F                  
WELLSBORO      FAIR      75  41  29 N10       30.28S                  
WILLIAMSPORT   MOSUNNY   80  46  30 S8        30.23F                  
SELINSGROVE    SUNNY     79  47  32 VRB3      30.25F                  
FT INDIANTOWN  NOT AVBL                                               
CAPITAL CITY   SUNNY     80  41  24 S3        30.27S                  
HARRISBURG     MOSUNNY   80  41  24 S3        30.26F                  
YORK           SUNNY     77  47  34 CALM      30.28S                  
$$


SKY/WX - Weather  TMP - Temperature  DP - Dew Point  RH - Relative Humidity
WIND - Wind Direction/Speed PRES - Barometric Pressure VSB - Visibility
WCI - Wind Chill Index E13G22 Wind - East Wind 13 mph/Gusts of 22 mph